[[{"header":{"parameterUnit":"m.s-1","parameterCategory":1,"la1":30.2991,"la2":30.254,"lo1":-89.0895,"lo2":-89.0444,"dy":0.0017,"dx":0.0017,"nx":28,"ny":28,"refTime":"2025-04-28T09:00:00:Z","depth":0,"parameterNumber":2,"parameterNumberName":"U-component_of_WINDS"},"data":[0,0,0,0,0,0,0,0,0,0,0,0,0,0,0,0,0,0,0,0,0,0,0,0,0,0,0,0,0,0,0,0,0,0,0,0,0,0,0,0,0,0,0,0,0,0,0,0,0,0,0,0,0,0,0,0,0,0,-1.0903,-1.0904,0,-1.0998,-1.0999,-1.1,-1.1023,-1.1023,-1.1022,-1.1021,-1.1122,-1.1125,-1.1129,0,0,0,0,0,0,0,0,0,0,0,0,0,-1.0745,-1.0748,-1.0903,-1.0904,-1.0905,-1.0998,-1.0999,-1.1,-1.1023,-1.1023,-1.1022,-1.1021,-1.1121,-1.1125,-1.1129,0,0,0,0,0,0,0,0,0,0,0,0,0,-1.0824,-1.0749,-1.0903,-1.0928,-1.0931,-1.0997,-1.0999,-1.1001,-1.1023,-1.1023,-1.1022,-1.1021,-1.112,-1.1125,-1.1129,-1.1179,0,0,-1.1144,-1.1147,0,0,0,0,0,0,0,0,-1.082,-1.083,-1.0923,-1.0926,-1.093,-1.0998,-1.098,-1.1061,-1.1024,-1.0988,-1.1021,-1.102,-1.1082,-1.109,-1.111,-1.1184,-1.1188,-1.1145,-1.1148,-1.115,-1.1151,0,0,0,0,0,0,0,-1.0814,-1.0826,-1.0941,-1.0924,-1.0928,-1.0935,-1.0946,-1.0996,-1.1039,-1.0991,-1.0993,-1.1004,-1.1083,-1.1105,-1.1112,-1.1189,-1.1145,-1.1149,-1.1152,-1.1154,-1.131,-1.1311,0,0,0,0,0,0,-1.0804,-1.0821,-1.0938,-1.0943,-1.0871,-1.0939,-1.095,-1.0977,-1.1039,-1.1047,-1.1005,-1.1005,-1.1097,-1.1107,-1.1116,-1.1179,-1.115,-1.1155,-1.1157,-1.1309,-1.131,-1.1311,0,0,0,0,0,0,-1.08,-1.0814,-1.0934,-1.0883,-1.0899,-1.0943,-1.0972,-1.0979,-1.1001,-1.1049,-1.1057,-1.1018,-1.1097,-1.1109,-1.1163,-1.1182,-1.1157,-1.1161,-1.1307,-1.1309,-1.1311,-1.1304,0,0,0,0,0,0,-1.0796,-1.0812,-1.0831,-1.0883,-1.0901,-1.0978,-1.0973,-1.0982,-1.1009,-1.101,-1.1064,-1.1072,-1.1097,-1.1156,-1.1168,-1.1189,-1.1165,-1.1306,-1.1308,-1.131,-1.1302,-1.1305,-1.1307,0,0,0,0,0,-1.079,-1.0825,-1.0831,-1.0845,-1.0925,-1.0979,-1.099,-1.1016,-1.101,-1.103,-1.1061,-1.107,-1.1178,-1.1161,-1.1175,-1.1198,-1.1305,-1.1307,-1.131,-1.1301,-1.1304,-1.1307,0,0,0,0,0,0,-1.0775,-1.0833,-1.084,-1.0893,-1.0931,-1.0983,-1.1008,-1.1019,-1.106,-1.1059,-1.1092,-1.1104,-1.1156,-1.1182,-1.1162,-1.1249,-1.1242,-1.1247,-1.123,-1.1233,-1.1236,-1.1229,-1.1169,0,0,0,0,0,-1.0778,-1.0816,-1.0865,-1.0907,-1.0926,-1.0963,-1.0988,-1.1005,-1.1046,-1.1063,-1.1098,-1.1138,-1.1181,-1.1209,-1.1251,-1.1306,-1.1319,-1.1329,-1.1331,-1.1333,-1.1338,-1.137,-1.1375,-1.132,-1.132,-1.132,0,0,-1.0785,-1.0821,-1.0843,-1.0905,-1.0936,-1.0976,-1.0977,-1.1019,-1.1049,-1.1069,-1.1122,-1.115,-1.1197,-1.1252,-1.1278,-1.1275,-1.1356,-1.1336,-1.1337,-1.1341,-1.1373,-1.1378,-1.1383,-1.1322,-1.1322,-1.1321,0,0,-1.0817,-1.0848,-1.0887,-1.0918,-1.0965,-1.099,-1.0999,-1.105,-1.1068,-1.1121,-1.1138,-1.1175,-1.1248,-1.1281,-1.1308,-1.1353,-1.1364,-1.1366,-1.1379,-1.141,-1.1414,-1.1418,-1.1435,-1.1441,-1.1371,-1.1371,-1.1371,0,-1.082,-1.0879,-1.0906,-1.0947,-1.0975,-1.0994,-1.1034,-1.1064,-1.1122,-1.1141,-1.1138,-1.123,-1.1263,-1.1327,-1.1338,-1.1358,-1.1371,-1.136,-1.1411,-1.1416,-1.142,-1.1436,-1.1443,-1.1371,-1.1371,-1.1371,-1.1371,0,-1.088,-1.0922,-1.0948,-1.1003,-1.1033,-1.1074,-1.1108,-1.1136,-1.1151,-1.1177,-1.1232,-1.1272,-1.1323,-1.1339,-1.1355,-1.1405,-1.1402,-1.1404,-1.1397,-1.1424,-1.1441,-1.1447,-1.1371,-1.1371,-1.1371,-1.1371,0,0,-1.0906,-1.0975,-1.0985,-1.101,-1.1064,-1.1097,-1.1139,-1.1188,-1.1211,-1.1252,-1.1289,-1.135,-1.1353,-1.1383,-1.1402,-1.1429,-1.1464,-1.1428,-1.143,-1.1434,-1.1523,-1.1521,-1.1528,-1.1471,-1.1472,-1.1473,-1.1519,0,-1.0946,-1.102,-1.1046,-1.1108,-1.1147,-1.1166,-1.1203,-1.1241,-1.1266,-1.1304,-1.1333,-1.1376,-1.1375,-1.1394,-1.1421,-1.1453,-1.1482,-1.145,-1.1507,-1.1508,-1.1494,-1.1536,-1.1535,-1.1576,-1.1526,-1.1527,-1.1528,0,-1.1001,-1.1041,-1.1107,-1.1156,-1.1173,-1.1206,-1.1253,-1.1289,-1.1332,-1.1349,-1.1382,-1.14,-1.1446,-1.1436,-1.1501,-1.1479,-1.1504,-1.1523,-1.1525,-1.1532,-1.152,-1.1545,-1.159,-1.1596,-1.1538,-1.1537,-1.1536,0,-1.1014,-1.1085,-1.1133,-1.1154,-1.1213,-1.1235,-1.1261,-1.1303,-1.1331,-1.1373,-1.1392,-1.1439,-1.1464,-1.1501,-1.1531,-1.1521,-1.1594,-1.1586,-1.161,-1.1609,-1.1625,-1.1624,-1.1675,-1.164,-1.164,-1.164,-1.164,0,-1.1056,-1.1096,-1.114,-1.117,-1.1215,-1.1245,-1.1289,-1.1316,-1.1354,-1.1391,-1.141,-1.1445,-1.1482,-1.1522,-1.1546,-1.1596,-1.1608,-1.1624,-1.163,-1.1622,-1.162,-1.1639,-1.1637,-1.1642,-1.1641,-1.1641,-1.1641,0,-1.1078,-1.1109,-1.1163,-1.1214,-1.1227,-1.1259,-1.1303,-1.1333,-1.136,-1.1406,-1.1418,-1.146,-1.1508,-1.1541,-1.1603,-1.1619,-1.1674,-1.168,-1.1659,-1.1662,-1.1684,-1.1682,-1.175,-1.1761,-1.1718,-1.1718,-1.1718,0,-1.1102,-1.1133,-1.1187,-1.1212,-1.1237,-1.1278,-1.1306,-1.1337,-1.1366,-1.1418,-1.1443,-1.1492,-1.1532,-1.1608,-1.1644,-1.1692,-1.1699,-1.172,-1.1706,-1.1698,-1.17,-1.1698,-1.1702,-1.1722,-1.1722,-1.1722,-1.1723,0,-1.1143,-1.1157,-1.1196,-1.1242,-1.1275,-1.1312,-1.135,-1.137,-1.1408,-1.144,-1.1488,-1.1519,-1.1582,-1.163,-1.1681,-1.1709,-1.1723,-1.1726,-1.1735,-1.1727,-1.1714,-1.1722,-1.1665,-1.1725,-1.1725,-1.1724,-1.1724,-1.1724,-1.1168,-1.1196,-1.1238,-1.1282,-1.1313,-1.1348,-1.138,-1.1409,-1.145,-1.1502,-1.1518,-1.1569,-1.1613,-1.1682,-1.1711,-1.1752,-1.1751,-1.1762,-1.1765,-1.1768,-1.1768,-1.1707,-1.1761,-1.1761,-1.1761,-1.1761,-1.1761,0,-1.121,-1.1238,-1.1278,-1.1329,-1.1364,-1.1372,-1.1415,-1.1444,-1.1487,-1.1526,-1.1566,-1.1622,-1.1669,-1.1709,-1.1759,-1.1784,-1.1791,-1.1796,-1.1794,-1.1801,-1.1766,-1.1754,-1.1789,-1.1789,-1.1789,-1.1789,-1.1789,-1.1789,-1.1236,-1.1285,-1.1303,-1.1369,-1.1397,-1.1445,-1.1469,-1.1502,-1.1533,-1.1594,-1.1633,-1.1659,-1.1699,-1.1751,-1.1796,-1.1807,-1.1824,-1.1827,-1.184,-1.1806,-1.1803,-1.18,-1.1789,-1.1831,-1.1831,-1.1871,-1.1872,-1.1872]},{"header":{"parameterUnit":"m.s-1","parameterCategory":1,"la1":30.2991,"la2":30.254,"lo1":-89.0895,"lo2":-89.0444,"dy":0.0017,"dx":0.0017,"nx":28,"ny":28,"refTime":"2025-04-28T09:00:00:Z","depth":0,"parameterNumber":3,"parameterNumberName":"V-component_of_WINDS"},"data":[0,0,0,0,0,0,0,0,0,0,0,0,0,0,0,0,0,0,0,0,0,0,0,0,0,0,0,0,0,0,0,0,0,0,0,0,0,0,0,0,0,0,0,0,0,0,0,0,0,0,0,0,0,0,0,0,0,0,2.5088,2.5088,0,2.5082,2.5082,2.5082,2.5044,2.5043,2.5042,2.5041,2.5035,2.5036,2.5037,0,0,0,0,0,0,0,0,0,0,0,0,0,2.5067,2.5068,2.5088,2.5088,2.5088,2.5082,2.5082,2.5082,2.5044,2.5043,2.5042,2.5041,2.5035,2.5036,2.5037,0,0,0,0,0,0,0,0,0,0,0,0,0,2.507,2.5068,2.5088,2.5068,2.5066,2.5082,2.5082,2.5082,2.5044,2.5043,2.5041,2.504,2.5035,2.5036,2.5037,2.5071,0,0,2.504,2.5041,0,0,0,0,0,0,0,0,2.507,2.5071,2.5071,2.507,2.5068,2.5062,2.5072,2.5078,2.5045,2.5053,2.5041,2.504,2.5045,2.5045,2.5047,2.507,2.507,2.504,2.5041,2.5041,2.5042,0,0,0,0,0,0,0,2.507,2.5071,2.5085,2.5071,2.5069,2.506,2.5059,2.5073,2.5057,2.5052,2.5049,2.5049,2.5044,2.5046,2.5047,2.507,2.504,2.5041,2.5042,2.5042,2.512,2.5121,0,0,0,0,0,0,2.5072,2.5071,2.5086,2.5085,2.5065,2.5061,2.506,2.5065,2.5057,2.5054,2.505,2.5047,2.5045,2.5046,2.5047,2.5085,2.5041,2.5042,2.5043,2.5119,2.512,2.5122,0,0,0,0,0,0,2.5072,2.5074,2.5086,2.5077,2.5078,2.5063,2.5069,2.5066,2.5068,2.5055,2.5052,2.5055,2.5044,2.5045,2.5065,2.5084,2.5043,2.5044,2.5117,2.5119,2.5121,2.5163,0,0,0,0,0,0,2.5072,2.5074,2.5087,2.5078,2.5079,2.5104,2.507,2.5067,2.507,2.5066,2.5059,2.5057,2.5043,2.5063,2.5066,2.5085,2.5044,2.5115,2.5118,2.512,2.516,2.5166,2.5172,0,0,0,0,0,2.5071,2.5099,2.5088,2.509,2.5094,2.5106,2.5106,2.509,2.5072,2.5084,2.5076,2.5057,2.5082,2.5066,2.5068,2.5088,2.5114,2.5117,2.512,2.5157,2.5165,2.5172,0,0,0,0,0,0,2.5111,2.5098,2.5085,2.5111,2.511,2.5099,2.5115,2.5099,2.5103,2.5099,2.5078,2.5077,2.51,2.5096,2.5078,2.512,2.5095,2.5098,2.5122,2.5129,2.5135,2.5135,2.5045,0,0,0,0,0,2.5123,2.5133,2.5121,2.5145,2.5145,2.513,2.5134,2.5122,2.512,2.5119,2.5112,2.5111,2.5118,2.5123,2.513,2.5159,2.5157,2.5174,2.518,2.5185,2.5188,2.5203,2.521,2.5132,2.5132,2.5132,0,0,2.5148,2.5142,2.5149,2.5153,2.5151,2.5161,2.513,2.5143,2.5151,2.5121,2.5139,2.5134,2.5131,2.5155,2.5166,2.5153,2.5209,2.5189,2.5193,2.5194,2.5207,2.5214,2.5221,2.5135,2.5134,2.5134,0,0,2.5198,2.5195,2.5214,2.5212,2.5209,2.5198,2.5203,2.5195,2.519,2.5208,2.5186,2.5195,2.5208,2.5207,2.5208,2.5257,2.524,2.526,2.5291,2.5306,2.5312,2.5317,2.5334,2.5341,2.5263,2.5263,2.5263,0,2.523,2.5245,2.5226,2.524,2.5243,2.5216,2.5235,2.5234,2.5233,2.5235,2.522,2.5236,2.5232,2.5256,2.5268,2.527,2.5274,2.526,2.5312,2.5317,2.5322,2.5338,2.5345,2.5266,2.5266,2.5265,2.5265,0,2.5283,2.5294,2.531,2.5309,2.5313,2.533,2.5314,2.532,2.5307,2.5298,2.5316,2.5311,2.5315,2.532,2.5307,2.5341,2.5333,2.5316,2.529,2.5332,2.5347,2.5353,2.5269,2.5268,2.5268,2.5267,0,0,2.5359,2.5347,2.5353,2.5352,2.5346,2.5354,2.5369,2.5373,2.5378,2.5378,2.5391,2.5402,2.5386,2.5387,2.5374,2.5387,2.5426,2.5368,2.5368,2.5379,2.5462,2.5475,2.5483,2.5414,2.5416,2.5416,2.5463,0,2.5407,2.5432,2.5416,2.5444,2.5453,2.5428,2.5441,2.5438,2.5431,2.5438,2.5429,2.5437,2.5415,2.5416,2.5427,2.5419,2.5442,2.5415,2.5425,2.5426,2.5427,2.5491,2.5504,2.5548,2.5468,2.5469,2.547,0,2.5466,2.5468,2.5497,2.5488,2.5491,2.5504,2.5505,2.5512,2.5509,2.5502,2.5504,2.5487,2.5502,2.5476,2.5496,2.5477,2.5481,2.5477,2.5478,2.5478,2.545,2.5492,2.5562,2.5568,2.5479,2.5478,2.5478,0,2.5518,2.5528,2.5546,2.5546,2.5536,2.5545,2.5542,2.5537,2.554,2.5542,2.5543,2.5547,2.5549,2.5552,2.5537,2.552,2.5558,2.5532,2.5553,2.5553,2.5562,2.5562,2.5633,2.5565,2.5565,2.5565,2.5565,0,2.5573,2.5592,2.5569,2.558,2.56,2.5581,2.5601,2.5595,2.5591,2.56,2.5579,2.5588,2.5568,2.5575,2.5564,2.5581,2.5582,2.5577,2.5574,2.5579,2.558,2.5581,2.5577,2.5566,2.5566,2.5566,2.5565,0,2.5634,2.562,2.5638,2.5627,2.5625,2.564,2.563,2.564,2.5631,2.5643,2.5645,2.563,2.5637,2.5623,2.5629,2.5621,2.5645,2.5637,2.5646,2.5644,2.5666,2.5664,2.574,2.5749,2.5675,2.5676,2.5677,0,2.567,2.5684,2.5674,2.5678,2.5676,2.5684,2.5686,2.5668,2.5672,2.5669,2.5679,2.5685,2.5688,2.5701,2.5691,2.5695,2.5687,2.5713,2.5687,2.5692,2.5687,2.5686,2.5687,2.5719,2.5719,2.572,2.5721,0,2.5736,2.5727,2.5732,2.5734,2.5738,2.5739,2.5739,2.5744,2.5724,2.573,2.5737,2.5739,2.5745,2.575,2.5752,2.5748,2.5731,2.5729,2.5734,2.5739,2.5744,2.5741,2.566,2.5727,2.5727,2.5726,2.5726,2.5725,2.5785,2.5795,2.579,2.5796,2.5793,2.5793,2.5801,2.5793,2.5798,2.5801,2.5789,2.5799,2.5795,2.5795,2.5793,2.58,2.5788,2.5796,2.5798,2.58,2.5803,2.5743,2.5801,2.58,2.58,2.58,2.58,0,2.5849,2.5843,2.5849,2.5848,2.5853,2.5836,2.5834,2.5839,2.5848,2.5845,2.5849,2.5857,2.5862,2.5852,2.5855,2.5863,2.5855,2.5865,2.5864,2.5863,2.5814,2.5809,2.5871,2.5871,2.5871,2.5871,2.5871,2.5871,2.5882,2.5899,2.589,2.5905,2.59,2.5909,2.5909,2.5909,2.5906,2.5916,2.592,2.5913,2.5907,2.591,2.5914,2.5911,2.5913,2.5925,2.592,2.5874,2.5867,2.586,2.5855,2.5926,2.5926,2.5969,2.5969,2.5969]}]]